AKJ1437 VOBL-VAPO

Flight info

Callsign AKJ1437
Flight time 1h 16m
Altitude 36000
Route VAGPU8A VAGPU Q8 AGELA W56 AVKOR
Aircraft B38M/M-SDE1FGHILORVWXY/HB1

Departure

Time 2026-04-24 15:21
Airport Kempegowda International Airport Bengaluru (VOBL)

Arrival

Time 2026-04-24 16:37
Airport Pune International Airport (VAPO)
Time Latitude Longitude Altitude Speed Heading
2026-04-24 15:16 13.20542 77.69025 3008 ft 15 kts 271°
2026-04-24 15:16 13.20544 77.68897 3010 ft 21 kts 271°
2026-04-24 15:17 13.20547 77.68713 3006 ft 21 kts 272°
2026-04-24 15:17 13.20547 77.68647 3007 ft 4 kts 269°
2026-04-24 15:17 13.20570 77.68618 3008 ft 6 kts 345°
2026-04-24 15:17 13.20601 77.68617 3009 ft 0 kts 360°
2026-04-24 15:18 13.20603 77.68617 3009 ft 1 kts 360°
2026-04-24 15:18 13.20649 77.68617 3010 ft 9 kts
2026-04-24 15:19 13.20706 77.68630 3011 ft 7 kts 53°
2026-04-24 15:19 13.20716 77.68677 3010 ft 7 kts 90°
2026-04-24 15:19 13.20716 77.68698 3010 ft 0 kts 90°
2026-04-24 15:20 13.20715 77.68744 3010 ft 22 kts 91°
2026-04-24 15:20 13.20711 77.69123 3006 ft 81 kts 90°
2026-04-24 15:20 13.20704 77.69884 3001 ft 131 kts 90°
2026-04-24 15:20 13.20697 77.70936 2955 ft 172 kts 93°
2026-04-24 15:21 13.20685 77.72218 3253 ft 179 kts 92°
2026-04-24 15:21 13.20699 77.73518 3568 ft 193 kts 91°
2026-04-24 15:21 13.21038 77.74876 3885 ft 208 kts 57°
2026-04-24 15:21 13.22245 77.75713 4315 ft 217 kts 15°
2026-04-24 15:22 13.23788 77.75542 4461 ft 239 kts 336°
2026-04-24 15:22 13.25209 77.74518 4648 ft 258 kts 320°
2026-04-24 15:22 13.26626 77.73345 4883 ft 274 kts 327°
2026-04-24 15:23 13.30150 77.71526 5592 ft 293 kts 340°
2026-04-24 15:23 13.33949 77.69989 6782 ft 296 kts 341°
2026-04-24 15:23 13.35891 77.69186 7352 ft 301 kts 340°
2026-04-24 15:24 13.41565 77.66766 9825 ft 296 kts 340°
2026-04-24 15:25 13.44816 77.65382 10790 ft 313 kts 340°
2026-04-24 15:25 13.49745 77.63290 11867 ft 346 kts 339°
2026-04-24 15:26 13.56676 77.60339 13739 ft 369 kts 339°
2026-04-24 15:27 13.63930 77.57244 15769 ft 385 kts 339°
2026-04-24 15:27 13.71491 77.54015 17732 ft 398 kts 338°
2026-04-24 15:28 13.81972 77.49542 20152 ft 417 kts 337°
2026-04-24 15:29 13.87389 77.47231 21325 ft 425 kts 336°
2026-04-24 15:30 13.95716 77.43675 23052 ft 436 kts 335°
2026-04-24 15:31 14.07139 77.38787 25078 ft 451 kts 334°
2026-04-24 15:32 14.18905 77.33746 26930 ft 465 kts 333°
2026-04-24 15:33 14.31049 77.28536 28616 ft 479 kts 332°
2026-04-24 15:33 14.40176 77.24620 30121 ft 480 kts 332°
2026-04-24 15:34 14.46338 77.21977 31136 ft 480 kts 331°
2026-04-24 15:35 14.55594 77.17999 32462 ft 481 kts 330°
2026-04-24 15:35 14.61753 77.15349 33500 ft 479 kts 330°
2026-04-24 15:35 14.64774 77.14050 34084 ft 476 kts 330°
2026-04-24 15:36 14.67837 77.12734 34578 ft 475 kts 330°
2026-04-24 15:36 14.73912 77.10118 35484 ft 474 kts 330°
2026-04-24 15:36 14.76974 77.08798 35847 ft 473 kts 330°
2026-04-24 15:37 14.83071 77.06159 35905 ft 485 kts 330°
2026-04-24 15:37 14.89300 77.03464 35903 ft 487 kts 330°
2026-04-24 15:38 14.95499 77.00790 35899 ft 486 kts 330°
2026-04-24 15:38 15.01711 76.98110 35894 ft 486 kts 330°
2026-04-24 15:39 15.07950 76.95418 35888 ft 485 kts 330°
2026-04-24 15:39 15.14176 76.92728 35881 ft 485 kts 330°
2026-04-24 15:40 15.20337 76.90060 35878 ft 485 kts 330°
2026-04-24 15:40 15.26539 76.87373 35878 ft 485 kts 330°
2026-04-24 15:41 15.32772 76.84671 35881 ft 485 kts 330°
2026-04-24 15:41 15.38953 76.81987 35883 ft 485 kts 330°
2026-04-24 15:42 15.45177 76.79286 35880 ft 485 kts 330°
2026-04-24 15:42 15.51369 76.76600 35874 ft 484 kts 330°
2026-04-24 15:43 15.57528 76.73926 35877 ft 484 kts 330°
2026-04-24 15:43 15.63730 76.71228 35882 ft 484 kts 330°
2026-04-24 15:44 15.69442 76.67744 35885 ft 468 kts 313°
2026-04-24 15:44 15.73897 76.63007 35892 ft 456 kts 302°
2026-04-24 15:45 15.77788 76.57884 35900 ft 452 kts 300°
2026-04-24 15:45 15.81577 76.52681 35908 ft 451 kts 300°
2026-04-24 15:46 15.85373 76.47523 35915 ft 452 kts 300°
2026-04-24 15:46 15.89205 76.42381 35919 ft 455 kts 301°
2026-04-24 15:47 15.93065 76.37232 35926 ft 453 kts 301°
2026-04-24 15:47 15.96872 76.32157 35929 ft 452 kts 300°
2026-04-24 15:48 16.00672 76.27092 35933 ft 452 kts 300°
2026-04-24 15:48 16.04536 76.21940 35933 ft 452 kts 300°
2026-04-24 15:49 16.08351 76.16846 35930 ft 449 kts 300°
2026-04-24 15:49 16.12077 76.11869 35933 ft 450 kts 300°
2026-04-24 15:50 16.15795 76.06902 35932 ft 450 kts 301°
2026-04-24 15:50 16.19589 76.01827 35929 ft 447 kts 301°
2026-04-24 15:51 16.23362 75.96774 35928 ft 450 kts 300°
2026-04-24 15:51 16.27189 75.91644 35926 ft 449 kts 300°
2026-04-24 15:52 16.30978 75.86565 35932 ft 449 kts 300°
2026-04-24 15:52 16.34797 75.81441 35934 ft 450 kts 300°
2026-04-24 15:53 16.38622 75.76305 35939 ft 451 kts 300°
2026-04-24 15:53 16.42461 75.71152 35941 ft 450 kts 300°
2026-04-24 15:54 16.46275 75.66027 35937 ft 450 kts 300°
2026-04-24 15:54 16.50086 75.60908 35937 ft 450 kts 300°
2026-04-24 15:55 16.53910 75.55757 35942 ft 450 kts 300°
2026-04-24 15:55 16.57730 75.50606 35947 ft 449 kts 300°
2026-04-24 15:56 16.61656 75.45528 35952 ft 453 kts 304°
2026-04-24 15:56 16.65983 75.40832 35950 ft 456 kts 308°
2026-04-24 15:57 16.70532 75.36202 35956 ft 458 kts 308°
2026-04-24 15:57 16.75035 75.31613 35956 ft 459 kts 308°
2026-04-24 15:58 16.79573 75.26943 35960 ft 457 kts 308°
2026-04-24 15:58 16.84054 75.22302 35964 ft 458 kts 307°
2026-04-24 15:59 16.88576 75.17595 35971 ft 455 kts 307°
2026-04-24 15:59 16.93049 75.12926 35977 ft 457 kts 307°
2026-04-24 16:00 16.97527 75.08244 35979 ft 458 kts 307°
2026-04-24 16:00 17.02026 75.03544 35983 ft 456 kts 307°
2026-04-24 16:01 17.06469 74.98907 35689 ft 447 kts 307°
2026-04-24 16:01 17.08629 74.96654 35223 ft 443 kts 307°
2026-04-24 16:01 17.10810 74.94376 34792 ft 438 kts 306°
2026-04-24 16:02 17.12911 74.92179 34308 ft 435 kts 306°
2026-04-24 16:02 17.15034 74.89956 33804 ft 433 kts 306°
2026-04-24 16:02 17.17121 74.87769 33309 ft 430 kts 306°
2026-04-24 16:02 17.19231 74.85556 32807 ft 427 kts 305°
2026-04-24 16:03 17.21316 74.83369 32342 ft 424 kts 306°
2026-04-24 16:03 17.23367 74.81216 31864 ft 422 kts 307°
2026-04-24 16:03 17.25448 74.79031 31377 ft 420 kts 307°
2026-04-24 16:03 17.27493 74.76882 30892 ft 418 kts 308°
2026-04-24 16:04 17.29524 74.74746 30410 ft 416 kts 308°
2026-04-24 16:04 17.31574 74.72591 29924 ft 414 kts 309°
2026-04-24 16:04 17.33598 74.70462 29439 ft 412 kts 309°
2026-04-24 16:04 17.35587 74.68369 28964 ft 410 kts 310°
2026-04-24 16:05 17.39572 74.64178 27995 ft 405 kts 311°
2026-04-24 16:05 17.41559 74.62090 27518 ft 403 kts 311°
2026-04-24 16:06 17.45488 74.57950 26574 ft 398 kts 311°
2026-04-24 16:06 17.47425 74.55904 26108 ft 396 kts 312°
2026-04-24 16:06 17.51261 74.51859 25177 ft 392 kts 313°
2026-04-24 16:07 17.53163 74.49855 24719 ft 390 kts 313°
2026-04-24 16:07 17.55086 74.47830 24250 ft 388 kts 313°
2026-04-24 16:07 17.58843 74.43868 23317 ft 383 kts 314°
2026-04-24 16:08 17.60732 74.41871 22852 ft 381 kts 314°
2026-04-24 16:08 17.64438 74.37953 21943 ft 375 kts 315°
2026-04-24 16:09 17.68075 74.34109 21034 ft 370 kts 315°
2026-04-24 16:09 17.69885 74.32197 20577 ft 368 kts 315°
2026-04-24 16:09 17.71680 74.30300 20117 ft 366 kts 315°
2026-04-24 16:09 17.73468 74.28410 19659 ft 364 kts 316°
2026-04-24 16:10 17.78755 74.22813 18375 ft 355 kts 316°
2026-04-24 16:11 17.82198 74.19161 17498 ft 351 kts 316°
2026-04-24 16:11 17.83916 74.17340 17052 ft 350 kts 316°
2026-04-24 16:11 17.85611 74.15546 16618 ft 348 kts 316°
2026-04-24 16:12 17.89000 74.11953 15738 ft 345 kts 317°
2026-04-24 16:12 17.90688 74.10163 15306 ft 343 kts 317°
2026-04-24 16:12 17.94025 74.06619 14435 ft 339 kts 317°
2026-04-24 16:13 17.95666 74.04876 14017 ft 337 kts 317°
2026-04-24 16:13 17.98951 74.01382 13167 ft 334 kts 318°
2026-04-24 16:14 18.02338 73.98109 12264 ft 328 kts 330°
2026-04-24 16:14 18.04406 73.97218 11854 ft 318 kts 355°
2026-04-24 16:14 18.08617 73.97975 11060 ft 304 kts 20°
2026-04-24 16:15 18.09951 73.98412 10793 ft 303 kts 20°
2026-04-24 16:15 18.14659 73.99853 9994 ft 294 kts 18°
2026-04-24 16:16 18.18435 74.00950 9434 ft 278 kts 18°
2026-04-24 16:16 18.20307 74.01501 9052 ft 278 kts 18°
2026-04-24 16:17 18.25879 74.03133 7963 ft 275 kts 18°
2026-04-24 16:17 18.29557 74.04208 7251 ft 272 kts 17°
2026-04-24 16:18 18.33087 74.05242 6586 ft 254 kts 17°
2026-04-24 16:18 18.36412 74.06216 5955 ft 240 kts 17°
2026-04-24 16:18 18.37989 74.06678 5658 ft 233 kts 17°
2026-04-24 16:19 18.41023 74.07567 5069 ft 218 kts 16°
2026-04-24 16:19 18.42469 74.07991 4793 ft 211 kts 16°
2026-04-24 16:20 18.45245 74.08804 4332 ft 196 kts 15°
2026-04-24 16:20 18.47733 74.09534 4180 ft 182 kts 15°
2026-04-24 16:20 18.48955 74.09892 4118 ft 182 kts 15°
2026-04-24 16:21 18.51428 74.10619 4003 ft 181 kts 15°
2026-04-24 16:21 18.52648 74.10980 4003 ft 182 kts 15°
2026-04-24 16:21 18.53875 74.11332 4004 ft 183 kts 12°
2026-04-24 16:22 18.55137 74.11386 4000 ft 182 kts 345°
2026-04-24 16:22 18.57013 74.09646 4010 ft 187 kts 297°
2026-04-24 16:22 18.57261 74.08292 4017 ft 191 kts 268°
2026-04-24 16:23 18.57157 74.06893 4016 ft 191 kts 271°
2026-04-24 16:23 18.57205 74.05512 4011 ft 183 kts 278°
2026-04-24 16:23 18.57324 74.04246 4014 ft 170 kts 278°
2026-04-24 16:24 18.57499 74.01761 3464 ft 165 kts 276°
2026-04-24 16:24 18.57589 74.00550 3287 ft 168 kts 277°
2026-04-24 16:24 18.57678 73.99326 3055 ft 165 kts 276°
2026-04-24 16:24 18.57757 73.98120 2855 ft 166 kts 277°
2026-04-24 16:25 18.57847 73.96918 2653 ft 165 kts 277°
2026-04-24 16:25 18.57930 73.95708 2446 ft 164 kts 276°
2026-04-24 16:25 18.58039 73.94505 2214 ft 164 kts 277°
2026-04-24 16:26 18.58220 73.92161 1968 ft 154 kts 276°
2026-04-24 16:26 18.58277 73.90997 2220 ft 161 kts 275°
2026-04-24 16:26 18.58352 73.88453 2944 ft 189 kts 274°
2026-04-24 16:27 18.58378 73.87021 3202 ft 206 kts 274°
2026-04-24 16:27 18.58427 73.85442 3519 ft 220 kts 279°
2026-04-24 16:27 18.58940 73.83920 3787 ft 230 kts 308°
2026-04-24 16:27 18.60210 73.82855 4156 ft 237 kts 341°
2026-04-24 16:28 18.61792 73.82591 4739 ft 236 kts
2026-04-24 16:28 18.63448 73.82718 4963 ft 236 kts 16°
2026-04-24 16:28 18.65667 73.85013 5012 ft 238 kts 76°
2026-04-24 16:29 18.65745 73.86755 5023 ft 240 kts 92°
2026-04-24 16:29 18.65582 73.88518 5009 ft 241 kts 94°
2026-04-24 16:29 18.65207 73.92029 5009 ft 241 kts 94°
2026-04-24 16:30 18.64848 73.95554 5016 ft 241 kts 94°
2026-04-24 16:30 18.64662 73.97315 5015 ft 240 kts 94°
2026-04-24 16:30 18.64478 73.99056 5015 ft 240 kts 94°
2026-04-24 16:31 18.64297 74.00803 5011 ft 239 kts 94°
2026-04-24 16:31 18.64122 74.02548 5011 ft 240 kts 94°
2026-04-24 16:31 18.63950 74.04310 5011 ft 240 kts 94°
2026-04-24 16:31 18.63777 74.06050 5014 ft 240 kts 94°
2026-04-24 16:32 18.63657 74.07207 5015 ft 240 kts 94°
2026-04-24 16:32 18.63302 74.09537 5003 ft 244 kts 110°
2026-04-24 16:32 18.62265 74.10886 5005 ft 235 kts 149°
2026-04-24 16:32 18.60743 74.11341 5007 ft 221 kts 177°
2026-04-24 16:33 18.59297 74.11073 5005 ft 205 kts 204°
2026-04-24 16:33 18.58106 74.10278 4978 ft 203 kts 224°
2026-04-24 16:33 18.57263 74.09089 4774 ft 204 kts 251°
2026-04-24 16:33 18.57084 74.07668 4526 ft 195 kts 276°
2026-04-24 16:34 18.57186 74.06237 4269 ft 192 kts 277°
2026-04-24 16:34 18.57286 74.04868 4027 ft 184 kts 277°
2026-04-24 16:34 18.57369 74.03585 3823 ft 169 kts 277°
2026-04-24 16:34 18.57458 74.02350 3578 ft 167 kts 278°
2026-04-24 16:35 18.57552 74.01133 3374 ft 167 kts 278°
2026-04-24 16:35 18.57631 73.99924 3166 ft 165 kts 277°
2026-04-24 16:35 18.57716 73.98718 2959 ft 164 kts 277°
2026-04-24 16:35 18.57820 73.97529 2735 ft 163 kts 280°
2026-04-24 16:36 18.57919 73.96343 2530 ft 162 kts 276°
2026-04-24 16:36 18.58007 73.95157 2330 ft 162 kts 276°
2026-04-24 16:36 18.58089 73.93969 2126 ft 162 kts 277°
2026-04-24 16:36 18.58172 73.92815 1958 ft 157 kts 276°
2026-04-24 16:37 18.58242 73.91803 1950 ft 108 kts 272°
2026-04-24 16:37 18.58271 73.91235 1950 ft 52 kts 272°
2026-04-24 16:37 18.58282 73.91058 1951 ft 22 kts 274°
2026-04-24 16:37 18.58273 73.90963 1951 ft 5 kts 210°
2026-04-24 16:38 18.58217 73.90945 1951 ft 9 kts 189°
2026-04-24 16:38 18.58187 73.90940 1951 ft 4 kts 190°
2026-04-24 16:38 18.58162 73.90936 1951 ft 3 kts 189°
2026-04-24 16:38 18.58118 73.90929 1951 ft 9 kts 188°
2026-04-24 16:39 18.58083 73.90923 1951 ft 2 kts 189°
2026-04-24 16:39 18.58065 73.90933 1951 ft 7 kts 126°
2026-04-24 16:39 18.58053 73.90963 1951 ft 2 kts 146°
2026-04-24 16:39 18.58031 73.90968 1951 ft 2 kts 180°
2026-04-24 16:40 18.58013 73.90966 1951 ft 2 kts 186°
2026-04-24 16:40 18.58005 73.90965 1951 ft 0 kts 187°